When you browse on this site, cookies collect data to enhance your experience and personalize the content and advertising you see.
Visit our Privacy Policy to learn more. By continuing to use the site, you agree to this use of cookies and data.
EN

Hourly Weather Cluj-Napoca

Today, 5 August, Wednesday

Time Temperature Precipitation Wind Pressure Humidity
00:00 +21°C° 0 mm 1 mps 721 mmHg 79%
01:00 +20°C° 0 mm 1 mps 722 mmHg 79%
02:00 +20°C° 0 mm 1 mps 722 mmHg 79%
03:00 +20°C° 0 mm 1 mps 722 mmHg 80%
04:00 +17°C° 0 mm 0 mps 722 mmHg 80%
05:00 +17°C° 0 mm 0 mps 722 mmHg 80%
06:00 +20°C° 0 mm 1 mps 722 mmHg 77%
07:00 +22°C° 0 mm 1 mps 722 mmHg 74%
08:00 +23°C° 0 mm 1 mps 723 mmHg 70%
09:00 +24°C° 0 mm 1 mps 723 mmHg 65%
10:00 +26°C° 0 mm 2 mps 723 mmHg 60%
11:00 +27°C° 0 mm 2 mps 724 mmHg 55%
12:00 +28°C° 0 mm 2 mps 724 mmHg 52%
13:00 +29°C° 0 mm 2 mps 724 mmHg 49%
14:00 +30°C° 0 mm 2 mps 724 mmHg 46%
15:00 +30°C° 0 mm 3 mps 724 mmHg 47%
16:00 +30°C° 0 mm 3 mps 724 mmHg 48%
17:00 +30°C° 0 mm 3 mps 724 mmHg 50%
18:00 +28°C° 0 mm 3 mps 724 mmHg 51%
19:00 +25°C° 0 mm 3 mps 724 mmHg 52%
20:00 +22°C° 0 mm 3 mps 724 mmHg 53%
21:00 +21°C° 0 mm 3 mps 724 mmHg 57%
22:00 +20°C° 0 mm 3 mps 725 mmHg 60%
23:00 +19°C° 0 mm 2 mps 725 mmHg 63%

Tomorrow, 6 August, Thursday

Time Temperature Precipitation Wind Pressure Humidity
00:00 +19°C° 0 mm 2 mps 725 mmHg 64%
01:00 +18°C° 0 mm 2 mps 725 mmHg 65%
02:00 +18°C° 0 mm 2 mps 725 mmHg 66%
03:00 +18°C° 0 mm 1 mps 725 mmHg 67%
04:00 +18°C° 0 mm 1 mps 725 mmHg 68%
05:00 +16°C° 0 mm 1 mps 726 mmHg 69%
06:00 +19°C° 0 mm 1 mps 726 mmHg 66%
07:00 +21°C° 0 mm 1 mps 726 mmHg 62%
08:00 +22°C° 0 mm 1 mps 727 mmHg 59%
09:00 +24°C° 0 mm 2 mps 727 mmHg 56%
10:00 +25°C° 0 mm 3 mps 727 mmHg 52%
11:00 +27°C° 0 mm 3 mps 728 mmHg 48%
12:00 +28°C° 0 mm 3 mps 728 mmHg 46%
13:00 +29°C° 0 mm 3 mps 727 mmHg 44%
14:00 +30°C° 0 mm 4 mps 727 mmHg 41%
15:00 +29°C° 0 mm 4 mps 727 mmHg 45%
16:00 +29°C° 0 mm 4 mps 727 mmHg 50%
17:00 +29°C° 0 mm 4 mps 727 mmHg 54%
18:00 +27°C° 0 mm 4 mps 727 mmHg 56%
19:00 +25°C° 0 mm 4 mps 727 mmHg 58%
20:00 +22°C° 0 mm 3 mps 727 mmHg 60%
21:00 +21°C° 0 mm 3 mps 728 mmHg 62%
22:00 +21°C° 0 mm 2 mps 728 mmHg 63%
23:00 +20°C° 0 mm 2 mps 728 mmHg 65%

Day after tomorrow, 7 August, Friday

Time Temperature Precipitation Wind Pressure Humidity
00:00 +19°C° 0 mm 2 mps 728 mmHg 68%
01:00 +20°C° 0 mm 1 mps 728 mmHg 70%
02:00 +19°C° 0 mm 1 mps 728 mmHg 73%
03:00 +19°C° 0 mm 1 mps 728 mmHg 75%
04:00 +18°C° 0 mm 1 mps 728 mmHg 76%
05:00 +18°C° 0 mm 1 mps 728 mmHg 78%
06:00 +20°C° 0 mm 1 mps 729 mmHg 74%
07:00 +21°C° 0 mm 1 mps 729 mmHg 70%
08:00 +23°C° 0 mm 2 mps 729 mmHg 66%
09:00 +24°C° 0 mm 2 mps 729 mmHg 61%
10:00 +26°C° 0 mm 3 mps 729 mmHg 57%
11:00 +27°C° 0 mm 4 mps 729 mmHg 52%
12:00 +28°C° 0 mm 3 mps 729 mmHg 51%
13:00 +29°C° 0 mm 3 mps 729 mmHg 50%
14:00 +29°C° 0 mm 3 mps 729 mmHg 49%
15:00 +29°C° 0 mm 3 mps 729 mmHg 52%
16:00 +29°C° 0 mm 3 mps 728 mmHg 54%
17:00 +29°C° 0 mm 3 mps 728 mmHg 57%
18:00 +27°C° 0 mm 3 mps 728 mmHg 62%
19:00 +25°C° 0 mm 3 mps 728 mmHg 67%
20:00 +23°C° 0 mm 2 mps 728 mmHg 72%
21:00 +23°C° 0 mm 2 mps 728 mmHg 75%
22:00 +22°C° 0 mm 1 mps 728 mmHg 77%
23:00 +21°C° 0 mm 1 mps 728 mmHg 80%

8 August, Saturday

Time Temperature Precipitation Wind Pressure Humidity
00:00 +21°C° 0 mm 1 mps 728 mmHg 81%
01:00 +20°C° 0 mm 1 mps 728 mmHg 82%
02:00 +20°C° 0 mm 1 mps 728 mmHg 83%
03:00 +20°C° 0 mm 1 mps 728 mmHg 83%
04:00 +19°C° 0 mm 1 mps 728 mmHg 83%
05:00 +19°C° 0 mm 1 mps 727 mmHg 84%
06:00 +21°C° 0 mm 1 mps 728 mmHg 79%
07:00 +22°C° 0 mm 1 mps 728 mmHg 75%
08:00 +23°C° 0 mm 1 mps 728 mmHg 71%
09:00 +25°C° 0 mm 1 mps 728 mmHg 66%
10:00 +26°C° 0 mm 1 mps 728 mmHg 62%
11:00 +27°C° 0 mm 1 mps 728 mmHg 58%
12:00 +28°C° 0 mm 1 mps 728 mmHg 55%
13:00 +29°C° 0 mm 1 mps 727 mmHg 53%
14:00 +29°C° 0 mm 1 mps 727 mmHg 50%
15:00 +29°C° 0.1 mm 2 mps 727 mmHg 52%
16:00 +29°C° 0.1 mm 2 mps 727 mmHg 55%
17:00 +29°C° 0.1 mm 2 mps 726 mmHg 57%
18:00 +27°C° 0.5 mm 2 mps 726 mmHg 63%
19:00 +25°C° 0.5 mm 1 mps 726 mmHg 70%
20:00 +23°C° 0.5 mm 1 mps 726 mmHg 76%
21:00 +22°C° 0.2 mm 1 mps 726 mmHg 77%
22:00 +21°C° 0.2 mm 1 mps 726 mmHg 78%
23:00 +21°C° 0.2 mm 1 mps 726 mmHg 79%

9 August, Sunday

Time Temperature Precipitation Wind Pressure Humidity
00:00 +20°C° 0 mm 1 mps 726 mmHg 80%
01:00 +20°C° 0 mm 1 mps 726 mmHg 82%
02:00 +19°C° 0 mm 1 mps 726 mmHg 83%
03:00 +19°C° 0 mm 1 mps 726 mmHg 84%
04:00 +18°C° 0 mm 1 mps 725 mmHg 85%
05:00 +18°C° 0 mm 1 mps 725 mmHg 86%
06:00 +19°C° 0 mm 1 mps 725 mmHg 82%
07:00 +21°C° 0 mm 1 mps 726 mmHg 78%
08:00 +22°C° 0 mm 1 mps 726 mmHg 74%
09:00 +23°C° 0 mm 1 mps 726 mmHg 69%
10:00 +25°C° 0 mm 2 mps 726 mmHg 64%
11:00 +26°C° 0 mm 2 mps 726 mmHg 59%
12:00 +27°C° 0 mm 2 mps 726 mmHg 56%
13:00 +27°C° 0 mm 1 mps 726 mmHg 53%
14:00 +28°C° 0 mm 1 mps 725 mmHg 50%
15:00 +28°C° 0 mm 1 mps 725 mmHg 50%
16:00 +28°C° 0 mm 1 mps 725 mmHg 50%
17:00 +28°C° 0 mm 1 mps 725 mmHg 49%
18:00 +26°C° 0 mm 1 mps 725 mmHg 55%
19:00 +24°C° 0 mm 1 mps 725 mmHg 61%
20:00 +22°C° 0 mm 1 mps 725 mmHg 67%
21:00 +21°C° 0 mm 1 mps 725 mmHg 69%
22:00 +21°C° 0 mm 1 mps 725 mmHg 71%
23:00 +20°C° 0 mm 1 mps 725 mmHg 72%

10 August, Monday

Time Temperature Precipitation Wind Pressure Humidity
00:00 +20°C° 0 mm 1 mps 725 mmHg 74%
01:00 +19°C° 0 mm 1 mps 725 mmHg 76%
02:00 +19°C° 0 mm 1 mps 725 mmHg 77%
03:00 +18°C° 0 mm 1 mps 725 mmHg 78%
04:00 +18°C° 0 mm 1 mps 724 mmHg 79%
05:00 +18°C° 0 mm 1 mps 724 mmHg 80%
06:00 +19°C° 0 mm 1 mps 725 mmHg 76%
07:00 +21°C° 0 mm 1 mps 725 mmHg 72%
08:00 +22°C° 0 mm 1 mps 725 mmHg 68%
09:00 +24°C° 0.1 mm 1 mps 725 mmHg 64%
10:00 +25°C° 0.1 mm 2 mps 725 mmHg 60%
11:00 +26°C° 0.1 mm 2 mps 725 mmHg 56%
12:00 +27°C° 0.2 mm 1 mps 725 mmHg 54%
13:00 +28°C° 0.2 mm 1 mps 725 mmHg 52%
14:00 +27°C° 0.2 mm 0 mps 725 mmHg 50%
15:00 +27°C° 0.2 mm 0 mps 725 mmHg 51%
16:00 +29°C° 0.2 mm 1 mps 725 mmHg 51%
17:00 +29°C° 0.2 mm 1 mps 724 mmHg 51%
18:00 +27°C° 0.1 mm 1 mps 724 mmHg 58%
19:00 +25°C° 0.1 mm 1 mps 724 mmHg 64%
20:00 +23°C° 0.1 mm 1 mps 724 mmHg 70%
21:00 +22°C° 0.5 mm 1 mps 724 mmHg 74%
22:00 +21°C° 0.5 mm 1 mps 724 mmHg 77%
23:00 +20°C° 0.5 mm 1 mps 725 mmHg 81%
Show more